Aeroporto :
LOGIN :

Iscrizione | Disclaimer

   EN    FR    IT 

 










Sommario :    VFR   VFR Marginale   IFR   IFR Intensivo   IFR Molto Intensivo
Visibilità : 
Base nubi : 
>= 8 km
>= 3000ft
5 / 8 km
1000 / 3000 ft
1500m / 5 km
500 / 1000 ft
800 / 1500m
200 / 500 ft
< 800m
< 200 ft
Simboli :   Temporali  Nebbia  Neve Forte  Precipitazioni Forti  Vento > 20 kt
SIGMETs :   Varie  Temporali  Ghiacco  Turbolenza  Onda orograficha  Ceneri Vulcaniche






- Altitudine del aeroporto : 289 ft
- Codice IATA : BSK


DAUB - Mohamed Khider

ULTIMO METAR :
  • 031400Z 27003KT 9999 FEW040 19/M00 Q1011

METARs OBSOLETI :
  • 031300Z 27009KT 9999 FEW040 19/M00 Q1012
  • 031200Z 34008KT 9999 FEW040 19/01 Q1012
  • 031100Z 34010KT 9999 FEW040 17/01 Q1013

TAF TAF DAUB
Valido dal 03 a 12 ore il 04 a 12 ore UTC


031100Z 0312/0412 29012KT 9999 FEW040
PROB40
TEMPO 0312/0318 FEW033TCU



MetMap, La meteo Aeronautica in un colpo d'occhio ! - Copyright ORBIFLY Dicembre 2007 - Disclaimer

ORBIFLY MET'MAP TEAM :

Programmazione e sviluppo : Alexandra Zaïnal
Concezione : Baudouin d'Aumeries
Aiuto per la programmazione : Marc-Olivier Méhu
Supporto tecnico e logistico : Manuel Goepfert
Aiuto per la traduzione : Arnaldo La Scala

Contatto : metmap@orbifly.com




FONTI E CREDITI :

   NOAA